Time,TemperatureF,DewpointF,PressureIn,WindDirection,WindDirectionDegrees,WindSpeedMPH,WindSpeedGustMPH,Humidity,HourlyPrecipIn,Conditions,Clouds,dailyrainin,SolarRadiationWatts/m^2,SoftwareType,DateUTC
2013-09-02 00:00:00,62.0,57.0,-100.00,North,0,4.0,-999.0,82,-99.99,,,-99.99,0.000000,,2013-09-02 05:00:00,
2013-09-02 00:44:00,62.0,57.0,-100.00,North,0,4.0,-999.0,82,-99.99,,,-99.99,0.000000,,2013-09-02 05:44:00,
2013-09-02 00:52:00,62.0,57.0,-100.00,North,0,4.0,-999.0,82,-99.99,,,-99.99,0.000000,,2013-09-02 05:52:00,
2013-09-02 01:00:00,61.0,56.0,-100.00,North,0,5.0,-999.0,82,-99.99,,,-99.99,0.000000,,2013-09-02 06:00:00,
2013-09-02 01:43:00,61.0,56.0,-100.00,North,0,5.0,-999.0,82,-99.99,,,-99.99,0.000000,,2013-09-02 06:43:00,
2013-09-02 01:52:00,61.0,56.0,-100.00,North,0,5.0,-999.0,82,-99.99,,,-99.99,0.000000,,2013-09-02 06:52:00,
2013-09-02 02:00:00,60.0,55.0,-100.00,North,0,4.0,-999.0,85,-99.99,,,-99.99,0.000000,,2013-09-02 07:00:00,
2013-09-02 02:42:00,60.0,55.0,-100.00,North,0,4.0,-999.0,85,-99.99,,,-99.99,0.000000,,2013-09-02 07:42:00,
2013-09-02 02:52:00,60.0,55.0,-100.00,North,0,4.0,-999.0,85,-99.99,,,-99.99,0.000000,,2013-09-02 07:52:00,
2013-09-02 03:00:00,59.0,55.0,-100.00,North,0,6.0,-999.0,86,-99.99,,,-99.99,0.000000,,2013-09-02 08:00:00,
2013-09-02 03:42:00,59.0,55.0,-100.00,North,0,6.0,-999.0,86,-99.99,,,-99.99,0.000000,,2013-09-02 08:42:00,
2013-09-02 03:52:00,59.0,55.0,-100.00,North,0,6.0,-999.0,86,-99.99,,,-99.99,0.000000,,2013-09-02 08:52:00,
2013-09-02 04:00:00,59.0,54.0,-100.00,North,0,7.0,-999.0,82,-99.99,,,-99.99,0.000000,,2013-09-02 09:00:00,
2013-09-02 04:44:00,59.0,54.0,-100.00,North,0,7.0,-999.0,82,-99.99,,,-99.99,0.000000,,2013-09-02 09:44:00,
2013-09-02 04:53:00,59.0,54.0,-100.00,North,0,7.0,-999.0,82,-99.99,,,-99.99,0.000000,,2013-09-02 09:53:00,
2013-09-02 05:00:00,58.0,52.0,-100.00,NNW,337,6.0,-999.0,80,-99.99,,,-99.99,0.000000,,2013-09-02 10:00:00,
2013-09-02 05:42:00,58.0,52.0,-100.00,NNW,337,6.0,-999.0,80,-99.99,,,-99.99,0.000000,,2013-09-02 10:42:00,
2013-09-02 05:53:00,58.0,52.0,-100.00,NNW,337,6.0,-999.0,80,-99.99,,,-99.99,0.000000,,2013-09-02 10:53:00,
2013-09-02 06:00:00,57.0,50.0,-100.00,NNW,337,7.0,-999.0,78,-99.99,,,-99.99,0.000000,,2013-09-02 11:00:00,
2013-09-02 06:42:00,57.0,50.0,-100.00,NNW,337,7.0,-999.0,78,-99.99,,,-99.99,0.000000,,2013-09-02 11:42:00,
2013-09-02 06:52:00,57.0,50.0,-100.00,NNW,337,7.0,-999.0,78,-99.99,,,-99.99,0.000000,,2013-09-02 11:52:00,
2013-09-02 07:00:00,57.0,50.0,-100.00,North,0,6.0,-999.0,78,-99.99,,,-99.99,12.760000,,2013-09-02 12:00:00,
2013-09-02 07:43:00,57.0,50.0,-100.00,North,0,6.0,-999.0,78,-99.99,,,-99.99,12.760000,,2013-09-02 12:43:00,
2013-09-02 07:52:00,57.0,50.0,-100.00,North,0,6.0,-999.0,78,-99.99,,,-99.99,12.760000,,2013-09-02 12:52:00,
2013-09-02 08:00:00,56.0,49.0,-100.00,North,0,7.0,-999.0,76,-99.99,,,-99.99,93.959999,,2013-09-02 13:00:00,
2013-09-02 08:42:00,56.0,49.0,-100.00,North,0,7.0,-999.0,76,-99.99,,,-99.99,93.959999,,2013-09-02 13:42:00,
2013-09-02 08:52:00,56.0,49.0,-100.00,North,0,7.0,-999.0,76,-99.99,,,-99.99,93.959999,,2013-09-02 13:52:00,
2013-09-02 09:00:00,56.0,49.0,-100.00,North,0,6.0,-999.0,77,-99.99,,,-99.99,145.000000,,2013-09-02 14:00:00,
2013-09-02 09:43:00,56.0,49.0,-100.00,North,0,6.0,-999.0,77,-99.99,,,-99.99,145.000000,,2013-09-02 14:43:00,
2013-09-02 09:52:00,56.0,49.0,-100.00,North,0,6.0,-999.0,77,-99.99,,,-99.99,145.000000,,2013-09-02 14:52:00,
2013-09-02 10:00:00,56.0,49.0,-100.00,NNW,337,6.0,-999.0,75,-99.99,,,-99.99,167.039993,,2013-09-02 15:00:00,
2013-09-02 10:45:00,56.0,49.0,-100.00,NNW,337,6.0,-999.0,75,-99.99,,,-99.99,167.039993,,2013-09-02 15:45:00,
2013-09-02 10:55:00,56.0,49.0,-100.00,NNW,337,6.0,-999.0,75,-99.99,,,-99.99,167.039993,,2013-09-02 15:55:00,
2013-09-02 11:00:00,57.0,48.0,-100.00,North,0,6.0,-999.0,72,-99.99,,,-99.99,223.880005,,2013-09-02 16:00:00,
2013-09-02 11:43:00,57.0,48.0,-100.00,North,0,6.0,-999.0,72,-99.99,,,-99.99,223.880005,,2013-09-02 16:43:00,
2013-09-02 11:53:00,57.0,48.0,-100.00,North,0,6.0,-999.0,72,-99.99,,,-99.99,223.880005,,2013-09-02 16:53:00,
2013-09-02 12:00:00,57.0,48.0,-100.00,NNW,337,6.0,-999.0,71,-99.99,,,-99.99,240.119995,,2013-09-02 17:00:00,
2013-09-02 12:45:00,57.0,48.0,-100.00,NNW,337,6.0,-999.0,71,-99.99,,,-99.99,240.119995,,2013-09-02 17:45:00,
2013-09-02 12:52:00,57.0,48.0,-100.00,NNW,337,6.0,-999.0,71,-99.99,,,-99.99,240.119995,,2013-09-02 17:52:00,
2013-09-02 13:00:00,59.0,48.0,-100.00,NNW,337,6.0,-999.0,69,-99.99,,,-99.99,308.559998,,2013-09-02 18:00:00,
2013-09-02 13:42:00,59.0,48.0,-100.00,NNW,337,6.0,-999.0,69,-99.99,,,-99.99,308.559998,,2013-09-02 18:42:00,
2013-09-02 13:52:00,59.0,48.0,-100.00,NNW,337,6.0,-999.0,69,-99.99,,,-99.99,308.559998,,2013-09-02 18:52:00,
2013-09-02 14:00:00,60.0,49.0,-100.00,NNW,337,5.0,-999.0,67,-99.99,,,-99.99,356.119995,,2013-09-02 19:00:00,
2013-09-02 14:42:00,60.0,49.0,-100.00,NNW,337,5.0,-999.0,67,-99.99,,,-99.99,356.119995,,2013-09-02 19:42:00,
2013-09-02 14:52:00,60.0,49.0,-100.00,NNW,337,5.0,-999.0,67,-99.99,,,-99.99,356.119995,,2013-09-02 19:52:00,
2013-09-02 15:00:00,62.0,50.0,-100.00,NNW,337,5.0,-999.0,65,-99.99,,,-99.99,455.880005,,2013-09-02 20:00:00,
2013-09-02 15:42:00,62.0,50.0,-100.00,NNW,337,5.0,-999.0,65,-99.99,,,-99.99,455.880005,,2013-09-02 20:42:00,
2013-09-02 15:52:00,62.0,50.0,-100.00,NNW,337,5.0,-999.0,65,-99.99,,,-99.99,455.880005,,2013-09-02 20:52:00,
2013-09-02 16:00:00,63.0,51.0,-100.00,NNW,337,5.0,-999.0,64,-99.99,,,-99.99,394.399994,,2013-09-02 21:00:00,
2013-09-02 16:44:00,63.0,51.0,-100.00,NNW,337,5.0,-999.0,64,-99.99,,,-99.99,394.399994,,2013-09-02 21:44:00,
2013-09-02 16:55:00,63.0,51.0,-100.00,NNW,337,5.0,-999.0,64,-99.99,,,-99.99,394.399994,,2013-09-02 21:55:00,
2013-09-02 17:00:00,62.0,51.0,-100.00,North,0,6.0,-999.0,65,-99.99,,,-99.99,226.199997,,2013-09-02 22:00:00,
2013-09-02 17:44:00,62.0,51.0,-100.00,North,0,6.0,-999.0,65,-99.99,,,-99.99,226.199997,,2013-09-02 22:44:00,
2013-09-02 17:54:00,62.0,51.0,-100.00,North,0,6.0,-999.0,65,-99.99,,,-99.99,226.199997,,2013-09-02 22:54:00,
2013-09-02 18:00:00,63.0,51.0,-100.00,North,0,5.0,-999.0,64,-99.99,,,-99.99,271.440002,,2013-09-02 23:00:00,
2013-09-02 18:42:00,63.0,51.0,-100.00,North,0,5.0,-999.0,64,-99.99,,,-99.99,271.440002,,2013-09-02 23:42:00,
2013-09-02 18:53:00,63.0,51.0,-100.00,North,0,5.0,-999.0,64,-99.99,,,-99.99,271.440002,,2013-09-02 23:53:00,
2013-09-02 19:00:00,61.0,50.0,-100.00,NNW,337,5.0,-999.0,65,-99.99,,,-99.99,100.919998,,2013-09-03 00:00:00,
2013-09-02 19:42:00,61.0,50.0,-100.00,NNW,337,5.0,-999.0,65,-99.99,,,-99.99,100.919998,,2013-09-03 00:42:00,
2013-09-02 19:52:00,61.0,50.0,-100.00,NNW,337,5.0,-999.0,65,-99.99,,,-99.99,100.919998,,2013-09-03 00:52:00,
2013-09-02 20:00:00,60.0,49.0,-100.00,NNW,337,4.0,-999.0,69,-99.99,,,-99.99,4.640000,,2013-09-03 01:00:00,
2013-09-02 20:42:00,60.0,49.0,-100.00,NNW,337,4.0,-999.0,69,-99.99,,,-99.99,4.640000,,2013-09-03 01:42:00,
2013-09-02 20:52:00,60.0,49.0,-100.00,NNW,337,4.0,-999.0,69,-99.99,,,-99.99,4.640000,,2013-09-03 01:52:00,
2013-09-02 21:00:00,60.0,49.0,-100.00,NNW,337,5.0,-999.0,68,-99.99,,,-99.99,0.000000,,2013-09-03 02:00:00,
2013-09-02 21:42:00,60.0,49.0,-100.00,NNW,337,5.0,-999.0,68,-99.99,,,-99.99,0.000000,,2013-09-03 02:42:00,
2013-09-02 21:52:00,60.0,49.0,-100.00,NNW,337,5.0,-999.0,68,-99.99,,,-99.99,0.000000,,2013-09-03 02:52:00,
2013-09-02 22:00:00,59.0,50.0,-100.00,NNW,337,6.0,-999.0,70,-99.99,,,-99.99,0.000000,,2013-09-03 03:00:00,
2013-09-02 22:45:00,59.0,50.0,-100.00,NNW,337,6.0,-999.0,70,-99.99,,,-99.99,0.000000,,2013-09-03 03:45:00,
2013-09-02 22:55:00,59.0,50.0,-100.00,NNW,337,6.0,-999.0,70,-99.99,,,-99.99,0.000000,,2013-09-03 03:55:00,
2013-09-02 23:00:00,59.0,50.0,-100.00,North,0,6.0,-999.0,73,-99.99,,,-99.99,0.000000,,2013-09-03 04:00:00,
2013-09-02 23:44:00,59.0,50.0,-100.00,North,0,6.0,-999.0,73,-99.99,,,-99.99,0.000000,,2013-09-03 04:44:00,
2013-09-02 23:53:00,59.0,50.0,-100.00,North,0,6.0,-999.0,73,-99.99,,,-99.99,0.000000,,2013-09-03 04:53:00,